Weather History for Miho AB, Japan

Change the Weather History Date:

Wednesday, July 25, 2012

  Actual Average (RJOC) Record (RJOC)
Temperature  
Mean Temperature 85 °F -  
Max Temperature 93 °F 84 °F 95 °F (2004)
Min Temperature 77 °F 74 °F 71 °F (2003)
Cooling Degree Days 20    
Growing Degree Days 35 (Base 50)    
Moisture  
Dew Point 74 °F    
Average Humidity 74    
Maximum Humidity 94    
Minimum Humidity 49    
Precipitation  
Precipitation 0.00 in - - ()
Sea Level Pressure  
Sea Level Pressure 29.91 in    
Wind  
Wind Speed 4 mph ()    
Max Wind Speed 12 mph    
Max Gust Speed -    
Visibility 5.9 miles    
Events      
Averages and records for this station are not official NWS values.
T = Trace of Precipitation, MM = Missing Value Source: Averaged Metar Reports

Daily Weather History Graph

Daily Weather History Graph

Search for Another Location

Airport:

Trip Planner

Search our weather history database for the weather conditions in past years. The results will help you decide how hot, cold, wet, or windy it might be!

Date:

Astronomy

Jul. 25, 2012 Rise Set
Actual Time 5:10 AM JST 7:16 PM JST
Civil Twilight 4:41 AM JST 7:45 PM JST
Nautical Twilight 4:06 AM JST 8:19 PM JST
Astronomical Twilight 3:29 AM JST 8:57 PM JST
Moon 11:16 AM JST (7/25) 10:36 PM JST (7/25)
Length of Visible Light 15h 03m
Length of Day
14h 06m
Waxing Crescent, 36% of the Moon is Illuminated
Jul 25
Waxing Crescent
Jul 26
First Quarter
Aug 2
Full
Aug 10
Last Quarter
Aug 18
New

Hourly Weather History & Observations

Time (JST) Temp. Heat Index Dew Point Humidity Pressure Visibility Wind Dir Wind Speed Gust Speed Precip Events Conditions
12:00 AM 78.8 °F - 75.2 °F 89% 29.92 in 6.2 mi ENE 3.5 mph - N/A   Unknown
1:00 AM 78.8 °F - 75.2 °F 89% 29.92 in 6.2 mi Variable 1.2 mph - N/A   Unknown
2:00 AM 78.8 °F - 75.2 °F 89% 29.92 in 6.2 mi Calm Calm - N/A   Unknown
3:00 AM 78.8 °F - 75.2 °F 89% 29.92 in 6.2 mi Calm Calm - N/A   Unknown
4:00 AM 77.0 °F - 75.2 °F 94% 29.92 in 5.6 mi South 4.6 mph - N/A   Partly Cloudy
5:00 AM 77.0 °F - 75.2 °F 94% 29.95 in 4.3 mi South 4.6 mph - N/A   Mostly Cloudy
6:00 AM 78.8 °F - 75.2 °F 89% 29.95 in 4.3 mi South 4.6 mph - N/A   Mostly Cloudy
7:00 AM 80.6 °F 86.2 °F 75.2 °F 84% 29.95 in 4.3 mi South 5.8 mph - N/A   Scattered Clouds
8:00 AM 82.4 °F 89.5 °F 75.2 °F 79% 29.95 in 6.2 mi SSW 5.8 mph - N/A   Mostly Cloudy
9:00 AM 86.0 °F 96.9 °F 77.0 °F 74% 29.95 in 6.2 mi West 5.8 mph - N/A   Scattered Clouds
10:00 AM 87.8 °F 97.6 °F 75.2 °F 66% 29.95 in 6.2 mi West 4.6 mph - N/A   Mostly Cloudy
11:00 AM 91.4 °F 98.4 °F 71.6 °F 52% 29.92 in 6.2 mi WNW 8.1 mph - N/A   Mostly Cloudy
12:00 PM 93.2 °F 100.5 °F 71.6 °F 49% 29.92 in 6.2 mi WSW 10.4 mph - N/A   Mostly Cloudy
1:00 PM 93.2 °F 102.4 °F 73.4 °F 52% 29.89 in 6.2 mi WNW 5.8 mph - N/A   Mostly Cloudy
2:00 PM 93.2 °F 102.4 °F 73.4 °F 52% 29.89 in 6.2 mi North 11.5 mph - N/A   Mostly Cloudy
3:00 PM 91.4 °F 98.4 °F 71.6 °F 52% 29.86 in 6.2 mi NW 8.1 mph - N/A   Mostly Cloudy
4:00 PM 91.4 °F 96.8 °F 69.8 °F 49% 29.86 in 6.2 mi West 8.1 mph - N/A   Mostly Cloudy
5:00 PM 89.6 °F 94.7 °F 69.8 °F 52% 29.86 in 6.2 mi NW 8.1 mph - N/A   Scattered Clouds
6:00 PM 87.8 °F 93.8 °F 71.6 °F 58% 29.86 in 6.2 mi WNW 9.2 mph - N/A   Scattered Clouds
7:00 PM 84.2 °F 92.3 °F 75.2 °F 74% 29.86 in 6.2 mi ESE 6.9 mph - N/A   Partly Cloudy
8:00 PM 82.4 °F 90.9 °F 77.0 °F 84% 29.89 in 6.2 mi East 3.5 mph - N/A   Partly Cloudy
9:00 PM 80.6 °F 86.2 °F 75.2 °F 84% 29.89 in 6.2 mi ESE 4.6 mph - N/A   Partly Cloudy
10:00 PM 80.6 °F 87.1 °F 77.0 °F 89% 29.89 in 5.6 mi ESE 5.8 mph - N/A   Partly Cloudy
11:00 PM 78.8 °F - 75.2 °F 89% 29.89 in 5.0 mi South 2.3 mph - N/A   Partly Cloudy